�������l�o���
Date,Time,MP-1(��Sv/h),MP-2(��Sv/h),MP-3(��Sv/h),MP-4(��Sv/h),MP-5(��Sv/h),MP-6(��Sv/h),MP-7(��Sv/h),MP-8(��Sv/h),����,����(m/s),���J
2017/07/25,00:00,0.942,1.472,0.997,1.764,1.210,0.520,0.936,0.868,��,4.7,��
2017/07/25,00:10,0.943,1.471,0.997,1.762,1.211,0.518,0.936,0.866,��쐼,3.4,��
2017/07/25,00:20,0.941,1.472,0.997,1.760,1.211,0.520,0.936,0.867,��쐼,4.5,��
2017/07/25,00:30,0.941,1.473,0.995,1.763,1.210,0.519,0.935,0.868,��쐼,3.7,��
2017/07/25,00:40,0.942,1.471,0.997,1.766,1.212,0.519,0.935,0.866,��쐼,3.6,��
2017/07/25,00:50,0.941,1.475,0.999,1.765,1.211,0.520,0.938,0.869,��쐼,1.9,��
2017/07/25,01:00,0.942,1.475,0.998,1.768,1.217,0.521,0.937,0.869,��쐼,2.6,��
2017/07/25,01:10,0.942,1.471,0.997,1.765,1.214,0.520,0.940,0.869,���쐼,1.2,��
2017/07/25,01:20,0.943,1.472,0.998,1.766,1.215,0.520,0.938,0.869,�k�k��,1.7,��
2017/07/25,01:30,0.943,1.477,0.996,1.766,1.215,0.519,0.938,0.868,�k,3.1,��
2017/07/25,01:40,0.939,1.474,0.997,1.765,1.214,0.519,0.937,0.867,�k,2.3,��
2017/07/25,01:50,0.940,1.475,0.996,1.766,1.214,0.519,0.938,0.868,�k�k��,3.7,��
2017/07/25,02:00,0.939,1.477,0.998,1.767,1.217,0.520,0.937,0.865,�k,4.2,��
2017/07/25,02:10,0.940,1.473,0.999,1.767,1.214,0.519,0.936,0.868,�k,5.7,��
2017/07/25,02:20,0.939,1.473,0.998,1.767,1.215,0.519,0.937,0.868,�k,5.0,��
2017/07/25,02:30,0.940,1.477,1.000,1.769,1.216,0.519,0.937,0.867,�k,4.7,��
2017/07/25,02:40,0.938,1.476,0.997,1.768,1.215,0.518,0.938,0.868,�k,4.7,��
2017/07/25,02:50,0.942,1.476,1.000,1.768,1.217,0.518,0.936,0.866,�k,3.8,��
2017/07/25,03:00,0.942,1.477,0.998,1.768,1.217,0.517,0.936,0.868,�k,4.4,��
2017/07/25,03:10,0.941,1.476,0.998,1.769,1.217,0.518,0.938,0.867,�k,3.5,��
2017/07/25,03:20,0.941,1.477,0.998,1.768,1.218,0.517,0.939,0.868,�k�k��,3.2,��
2017/07/25,03:30,0.942,1.478,0.997,1.770,1.217,0.518,0.938,0.869,�k�k��,3.5,��
2017/07/25,03:40,0.943,1.480,0.999,1.769,1.216,0.516,0.938,0.869,�k�k��,2.5,��
2017/07/25,03:50,0.943,1.476,0.999,1.770,1.217,0.517,0.936,0.871,�k�k��,2.6,��
2017/07/25,04:00,0.943,1.475,0.999,1.769,1.220,0.517,0.939,0.869,�k�k��,4.0,��
2017/07/25,04:10,0.942,1.477,0.998,1.772,1.215,0.518,0.938,0.871,�k,4.3,��
2017/07/25,04:20,0.943,1.480,0.999,1.769,1.220,0.517,0.939,0.871,�k,4.0,��
2017/07/25,04:30,0.945,1.476,1.001,1.771,1.221,0.518,0.937,0.869,�k�k��,4.1,�L
2017/07/25,04:40,0.946,1.477,0.998,1.773,1.217,0.518,0.939,0.868,�k�k��,3.8,��
2017/07/25,04:50,0.941,1.479,0.998,1.773,1.216,0.518,0.941,0.868,�k,4.3,��
2017/07/25,05:00,0.943,1.479,0.999,1.769,1.219,0.518,0.937,0.868,�k,4.2,��
2017/07/25,05:10,0.943,1.478,0.997,1.772,1.220,0.517,0.938,0.870,�k,4.0,��
2017/07/25,05:20,0.943,1.475,0.998,1.771,1.219,0.517,0.941,0.870,�k,3.7,��
2017/07/25,05:30,0.940,1.480,0.998,1.771,1.218,0.517,0.939,0.870,�k�k��,3.8,��
2017/07/25,05:40,0.943,1.476,0.999,1.772,1.222,0.517,0.938,0.868,�k�k��,3.1,��
2017/07/25,05:50,0.943,1.477,1.000,1.773,1.220,0.516,0.939,0.872,�k�k��,2.5,��
2017/07/25,06:00,0.944,1.479,0.999,1.773,1.217,0.517,0.940,0.870,�k�k��,3.4,��
2017/07/25,06:10,0.943,1.480,1.000,1.772,1.218,0.517,0.940,0.869,�k�k��,3.1,��
2017/07/25,06:20,0.944,1.480,0.996,1.773,1.220,0.517,0.939,0.868,�k�k��,3.3,��
2017/07/25,06:30,0.943,1.479,0.997,1.774,1.220,0.518,0.941,0.869,�k�k��,2.6,�L
2017/07/25,06:40,0.944,1.476,1.000,1.772,1.221,0.518,0.940,0.869,�k�k��,2.3,�L
2017/07/25,06:50,0.944,1.479,0.998,1.773,1.223,0.517,0.940,0.868,�k�k��,3.3,�L
2017/07/25,07:00,0.945,1.478,0.997,1.771,1.219,0.518,0.939,0.869,�k�k��,3.0,�L
2017/07/25,07:10,0.946,1.479,0.999,1.772,1.220,0.516,0.939,0.870,�k�k��,3.4,�L
2017/07/25,07:20,0.944,1.478,0.996,1.772,1.221,0.518,0.939,0.868,�k�k��,3.0,�L
2017/07/25,07:30,0.942,1.479,0.999,1.772,1.214,0.518,0.936,0.867,��쓌,2.2,�L
2017/07/25,07:40,0.943,1.471,0.992,1.747,1.186,0.512,0.927,0.862,�k��,2.2,�L
2017/07/25,07:50,0.937,1.464,0.992,1.741,1.196,0.515,0.926,0.860,�k,3.1,�L
2017/07/25,08:00,0.939,1.470,0.993,1.746,1.201,0.514,0.930,0.861,�k,3.7,��
2017/07/25,08:10,0.939,1.469,0.993,1.748,1.203,0.516,0.932,0.862,�k�k��,5.2,��
2017/07/25,08:20,0.940,1.466,0.995,1.753,1.200,0.514,0.931,0.863,�k�k��,4.7,��
2017/07/25,08:30,0.939,1.467,0.991,1.753,1.202,0.515,0.931,0.863,�k�k��,5.1,��
2017/07/25,08:40,0.939,1.468,0.991,1.751,1.202,0.513,0.932,0.861,�k�k��,3.6,��
2017/07/25,08:50,0.938,1.469,0.991,1.754,1.203,0.512,0.934,0.864,�k�k��,2.3,�L
2017/07/25,09:00,0.936,1.466,0.992,1.755,1.206,0.514,0.934,0.862,�k,1.9,�L
2017/07/25,09:10,0.939,1.465,0.993,1.752,1.204,0.514,0.933,0.863,�k�k��,3.4,��
2017/07/25,09:20,0.940,1.469,0.992,1.757,1.206,0.512,0.935,0.862,�k,2.0,��
2017/07/25,09:30,0.941,1.465,0.995,1.756,1.207,0.513,0.935,0.864,�k,1.2,��
2017/07/25,09:40,0.940,1.466,0.995,1.757,1.207,0.513,0.936,0.864,�k�k��,2.5,��
2017/07/25,09:50,0.942,1.467,0.994,1.756,1.208,0.513,0.933,0.864,�k�k��,2.0,��
2017/07/25,10:00,0.941,1.471,0.995,1.757,1.208,0.513,0.936,0.862,�k,1.5,��
2017/07/25,10:10,0.941,1.470,0.995,1.761,1.210,0.512,0.935,0.864,�k,1.4,��
2017/07/25,10:20,0.942,1.468,0.996,1.761,1.209,0.514,0.936,0.865,�k,1.7,��
2017/07/25,10:30,0.945,1.470,0.995,1.760,1.209,0.512,0.937,0.866,�k,1.7,��
2017/07/25,10:40,0.942,1.469,0.993,1.760,1.210,0.513,0.937,0.866,�k,2.2,��
2017/07/25,10:50,0.942,1.470,0.993,1.763,1.213,0.515,0.939,0.867,�k�k��,0.9,��
2017/07/25,11:00,0.942,1.471,0.995,1.761,1.213,0.513,0.936,0.866,�k�k��,0.9,��
2017/07/25,11:10,0.944,1.473,0.995,1.762,1.213,0.514,0.938,0.866,�k�k��,1.9,��
2017/07/25,11:20,0.943,1.470,0.994,1.764,1.212,0.515,0.938,0.865,�k�k��,3.1,��
2017/07/25,11:30,0.943,1.471,0.996,1.766,1.214,0.514,0.938,0.864,�k�k��,3.1,�L
2017/07/25,11:40,0.943,1.472,0.996,1.764,1.216,0.512,0.938,0.866,�k�k��,3.4,�L
2017/07/25,11:50,0.944,1.474,0.998,1.767,1.216,0.513,0.938,0.867,�k�k��,3.1,��
2017/07/25,12:00,0.944,1.475,0.996,1.766,1.215,0.513,0.938,0.867,�k�k��,4.0,��
2017/07/25,12:10,0.946,1.477,0.998,1.768,1.217,0.517,0.939,0.867,�k,4.3,��
2017/07/25,12:20,0.943,1.477,1.001,1.771,1.215,0.517,0.939,0.869,�k�k��,3.2,��
2017/07/25,12:30,0.943,1.480,1.000,1.769,1.217,0.515,0.940,0.867,�k�k��,4.1,�L
2017/07/25,12:40,0.944,1.477,1.000,1.771,1.217,0.515,0.941,0.868,�k�k��,3.8,�L
2017/07/25,12:50,0.944,1.477,0.998,1.771,1.218,0.517,0.939,0.867,�k�k��,3.8,�L
2017/07/25,13:00,0.945,1.477,0.998,1.774,1.217,0.515,0.940,0.867,�k,3.5,�L
2017/07/25,13:10,0.946,1.478,0.996,1.772,1.219,0.517,0.940,0.867,�k,3.8,�L
2017/07/25,13:20,0.940,1.466,0.997,1.766,1.212,0.519,0.938,0.866,�k��,3.5,�L
2017/07/25,13:30,0.934,1.450,0.992,1.751,1.200,0.518,0.932,0.863,��,3.4,�L
2017/07/25,13:40,0.937,1.455,0.993,1.750,1.200,0.519,0.925,0.851,�k�k��,2.0,�L
2017/07/25,13:50,0.941,1.463,0.996,1.755,1.205,0.523,0.927,0.852,�k,2.3,�L
2017/07/25,14:00,0.941,1.459,0.998,1.752,1.205,0.522,0.930,0.857,�k,2.0,�L
2017/07/25,14:10,0.943,1.462,0.999,1.755,1.206,0.520,0.928,0.859,�k,2.2,�L
2017/07/25,14:20,0.941,1.463,0.998,1.755,1.207,0.519,0.930,0.858,�k,1.7,�L
2017/07/25,14:30,0.942,1.462,0.999,1.755,1.208,0.520,0.932,0.860,�k,2.3,�L
2017/07/25,14:40,0.940,1.460,0.996,1.756,1.209,0.518,0.932,0.860,�k,1.9,�L
2017/07/25,14:50,0.940,1.464,0.995,1.755,1.208,0.517,0.930,0.862,�k,2.0,�L
2017/07/25,15:00,0.938,1.463,0.995,1.756,1.203,0.517,0.932,0.863,�k�k��,2.3,�L
2017/07/25,15:10,0.937,1.463,0.995,1.755,1.205,0.518,0.932,0.862,�k�k��,2.3,�L
2017/07/25,15:20,0.939,1.462,0.994,1.757,1.205,0.515,0.930,0.860,�k�k��,2.6,�L
2017/07/25,15:30,0.937,1.461,0.993,1.754,1.204,0.513,0.932,0.861,�k��,2.3,�L
2017/07/25,15:40,0.937,1.465,0.993,1.757,1.209,0.514,0.933,0.861,�k�k��,3.0,�L
2017/07/25,15:50,0.937,1.468,0.991,1.757,1.207,0.512,0.932,0.860,�k�k��,2.6,�L
2017/07/25,16:00,0.939,1.463,0.993,1.755,1.205,0.513,0.932,0.860,�k�k��,2.2,�L
2017/07/25,16:10,0.939,1.464,0.990,1.760,1.205,0.513,0.933,0.861,�k��,1.2,��
2017/07/25,16:20,0.939,1.464,0.992,1.759,1.206,0.513,0.933,0.861,�k��,2.2,��
2017/07/25,16:30,0.936,1.466,0.992,1.760,1.208,0.512,0.932,0.861,���k��,0.9,��
2017/07/25,16:40,0.936,1.466,0.993,1.760,1.208,0.513,0.931,0.862,���k��,0.9,�L
2017/07/25,16:50,0.940,1.463,0.993,1.759,1.207,0.513,0.932,0.863,��,1.4,��
2017/07/25,17:00,0.937,1.466,0.991,1.758,1.206,0.512,0.932,0.863,���k��,1.4,��
2017/07/25,17:10,0.939,1.463,0.993,1.759,1.209,0.512,0.934,0.863,���k��,1.5,��
2017/07/25,17:20,0.938,1.469,0.993,1.762,1.210,0.511,0.935,0.863,�k��,1.7,��
2017/07/25,17:30,0.938,1.467,0.993,1.761,1.207,0.513,0.933,0.863,�k��,1.2,��
2017/07/25,17:40,0.939,1.469,0.993,1.762,1.210,0.513,0.933,0.864,�k�k��,2.2,��
2017/07/25,17:50,0.936,1.470,0.995,1.762,1.210,0.514,0.934,0.865,�k�k��,2.0,�L
2017/07/25,18:00,0.939,1.470,0.995,1.762,1.210,0.514,0.934,0.864,�k�k��,3.0,�L
2017/07/25,18:10,0.938,1.468,0.994,1.763,1.210,0.513,0.935,0.866,�k��,1.7,�L
2017/07/25,18:20,0.939,1.463,0.994,1.760,1.207,0.515,0.933,0.862,���k��,4.2,�L
2017/07/25,18:30,0.939,1.463,0.996,1.757,1.206,0.517,0.932,0.862,�k�k��,2.3,�L
2017/07/25,18:40,0.936,1.455,0.991,1.754,1.198,0.519,0.931,0.861,�k�k��,3.9,�L
2017/07/25,18:50,0.929,1.439,0.986,1.732,1.183,0.518,0.928,0.860,-,CALM,�L
2017/07/25,19:00,0.930,1.445,0.987,1.730,1.188,0.517,0.925,0.854,���k��,1.9,�L
2017/07/25,19:10,0.933,1.449,0.991,1.739,1.192,0.519,0.927,0.856,���k��,2.2,�L
2017/07/25,19:20,0.934,1.450,0.991,1.740,1.193,0.519,0.927,0.858,�k�k��,1.2,��
2017/07/25,19:30,0.934,1.453,0.991,1.740,1.196,0.517,0.929,0.858,�k�k��,1.9,�L
2017/07/25,19:40,0.934,1.455,0.991,1.743,1.191,0.517,0.926,0.860,�k�k��,2.0,�L
2017/07/25,19:50,0.937,1.458,0.990,1.745,1.195,0.516,0.927,0.859,�k,2.2,�L
2017/07/25,20:00,0.934,1.457,0.990,1.745,1.196,0.516,0.929,0.859,�k�k��,2.6,�L
2017/07/25,20:10,0.936,1.455,0.991,1.744,1.196,0.515,0.927,0.861,�k�k��,2.5,�L
2017/07/25,20:20,0.933,1.457,0.989,1.750,1.198,0.515,0.928,0.861,�k,2.3,�L
2017/07/25,20:30,0.932,1.455,0.990,1.747,1.195,0.514,0.927,0.860,�k,2.5,��
2017/07/25,20:40,0.933,1.459,0.988,1.748,1.198,0.513,0.929,0.858,�k,3.0,��
2017/07/25,20:50,0.934,1.458,0.990,1.747,1.198,0.513,0.927,0.860,�k�k��,3.0,�L
2017/07/25,21:00,0.931,1.458,0.990,1.749,1.200,0.512,0.928,0.860,�k�k��,2.9,�L
2017/07/25,21:10,0.934,1.462,0.989,1.749,1.195,0.515,0.929,0.861,�k�k��,2.6,�L
2017/07/25,21:20,0.931,1.455,0.987,1.746,1.193,0.514,0.927,0.859,�k�k��,3.2,�L
2017/07/25,21:30,0.932,1.454,0.988,1.742,1.192,0.514,0.929,0.857,�k�k��,2.6,�L
2017/07/25,21:40,0.933,1.453,0.989,1.746,1.194,0.513,0.927,0.859,�k�k��,2.6,�L
2017/07/25,21:50,0.931,1.455,0.989,1.742,1.194,0.512,0.928,0.861,�k�k��,2.5,�L
2017/07/25,22:00,0.932,1.455,0.989,1.746,1.194,0.515,0.928,0.860,�k,2.6,�L
2017/07/25,22:10,0.931,1.455,0.988,1.747,1.193,0.512,0.928,0.861,�k�k��,2.6,��
2017/07/25,22:20,0.931,1.452,0.988,1.746,1.194,0.513,0.926,0.858,�k�k��,2.0,��
2017/07/25,22:30,0.933,1.455,0.990,1.743,1.194,0.512,0.929,0.862,�k�k��,1.7,��
2017/07/25,22:40,0.935,1.458,0.986,1.746,1.194,0.514,0.927,0.858,�k�k��,1.2,�L
2017/07/25,22:50,0.934,1.457,0.987,1.748,1.194,0.512,0.929,0.860,�k�k��,1.4,�L
2017/07/25,23:00,0.935,1.455,0.990,1.749,1.196,0.513,0.929,0.863,�k,1.7,�L
2017/07/25,23:10,0.936,1.455,0.989,1.745,1.195,0.513,0.930,0.860,�k�k��,1.4,�L
2017/07/25,23:20,0.933,1.450,0.988,1.746,1.193,0.515,0.927,0.861,�k�k��,1.2,�L
2017/07/25,23:30,0.932,1.453,0.991,1.745,1.193,0.516,0.929,0.860,�k,0.6,�L
2017/07/25,23:40,0.933,1.452,0.989,1.747,1.196,0.515,0.928,0.859,�k,1.1,�L
2017/07/25,23:50,0.934,1.453,0.990,1.746,1.195,0.516,0.927,0.861,�k�k��,1.2,�L
